Location: Gniazdowice
(50.2124°N, 20.2673°E)
Time: 22:11:34
(UTC+00:00)

BREEZE-M DEB (TANK) - Pass Details

Date: 23 May 2024
Orbit: 289 x 16911 km, 49.4° (Epoch: 22 June)

Event Time Altitude Azimuth Distance (km) Brightness Sun altitude
Exits shadow 00:07:41 22° 242° (WSW) 1,360 4.4 -16.3°
Maximum altitude 00:09:26 31° 199° (SSW) 1,406 4.3 -16.2°
Drops below altitude 10° 00:17:43 10° 141° (SE) 4,713 7.3 -15.6°
Sets 00:25:24 0° 135° (SE) 7,844 8.5 -15.1°
